Regional Weather Roundup
Issued by NWS Upton, NY

Home | Current Version | Previous Version | Text Only | Print | Product List | Glossary On
Versions: 1 2 3 4 5 6 7 8 9 10 11 12 13 14 15 16 17 18 19 20 21 22 23 24 25 26 27
000
ASUS41 KOKX 271509
RWROKX

REGIONAL WEATHER ROUNDUP
NATIONAL WEATHER SERVICE NEW YORK NY
1100 AM EDT SAT MAY 27 2017

NOTE: "FAIR" INDICATES FEW OR NO CLOUDS BELOW 12,000 FEET WITH NO
SIGNIFICANT WEATHER AND/OR OBSTRUCTIONS TO VISIBILITY.

NYZ071-072-176-178-NJZ106-104-271600-
NEW YORK CITY METRO AREA

CITY           SKY/WX    TMP DP  RH WIND       PRES   REMARKS
Central Park   PTSUNNY   68  54  60 VRB5      29.90F
Wall St Helipt SUNNY     70  56  61 VRB7      29.89S
Bronx Bot Gard   N/A     70  52  52 SW9       29.87F
LaGuardia APRT PTSUNNY   71  53  52 NW5       29.86F
Kennedy INTL   PTSUNNY   72  55  55 VRB3      29.88S
Breezy Point     N/A     64 N/A N/A SW8G14      N/A
Newark/Liberty PTSUNNY   70  54  56 NW7       29.87S
Teterboro      CLOUDY    71  55  56 VRB3      29.85F
$$

NYZ177-179-078>081-271600-
LONG ISLAND NEW YORK

CITY           SKY/WX    TMP DP  RH WIND       PRES   REMARKS
Jones Beach      N/A     64 N/A N/A SW6         N/A
Matinecock PT  NOT AVBL
Farmingdale    MOSUNNY   70  52  52 N7        29.87S
MacArthur/ISP  PTSUNNY   69  54  58 N10       29.87S
Shirley        PTSUNNY   68  56  65 NW8       29.88S
Mt Sinai Harb    N/A     64 N/A N/A N1          N/A
Westhampton    MOSUNNY   66  51  58 N12G18    29.89S
East Hampton   CLOUDY    62  48  60 N14G20    29.87S
Montauk          N/A     60  51  72 N6        29.89S
$$

NYZ052-065-067-271600-
HUDSON VALLEY

CITY           SKY/WX    TMP DP  RH WIND       PRES   REMARKS
White Plains   MOSUNNY   70  54  56 VRB6      29.86F
Larchmont Harb   N/A     63 N/A N/A SE6         N/A
Croton O-T Hud   N/A     64 N/A N/A SW2         N/A
Newburgh       PTSUNNY   66  55  68 CALM      29.89S
Montgomery     CLOUDY    68  54  60 VRB3      29.86F
Poughkeepsie   MOSUNNY   64  53  67 VRB3      29.87S
Albany         PTSUNNY   60  49  66 E6        29.91S
$$

NJZ001-105-106-008-010-013-015-019>022-104-271600-
NEW JERSEY

CITY           SKY/WX    TMP DP  RH WIND       PRES   REMARKS
Newark/Liberty PTSUNNY   70  54  56 NW7       29.87S
Teterboro      CLOUDY    71  55  56 VRB3      29.85F
Caldwell       CLOUDY    72  53  51 NW5       29.88S
Somerville     MOSUNNY   71  57  61 MISG      29.87S
Linden           N/A     71  54  55 NW5       29.88S
Perth Amboy      N/A     66 N/A N/A W7          N/A
Sussex         CLOUDY    68  56  65 W6        29.89S
Andover          N/A     69  54  58 W6        29.89S
Trenton        CLOUDY    69  55  60 CALM      29.89S
Millville      CLOUDY    69  56  62 W6        29.91S
Atlantic City  SUNNY     71  54  54 VRB3      29.89
Wrightstown    CLOUDY    69  55  62 NW3       29.87F
Toms River     CLOUDY    70  54  56 W5        29.90S
Belmar         PTSUNNY   67  54  63 SW7       29.90F
$$

PAZ047>061-062-071-271600-
EASTERN PENNSYLVANIA

CITY           SKY/WX    TMP DP  RH WIND       PRES   REMARKS
Philadelphia   PTSUNNY   70  53  54 SW10      29.90S
Allentown      MOSUNNY   70  54  56 CALM      29.89F
Scranton       CLOUDY    63  55  75 SW3       29.91S
$$

CTZ002-004>006-009-010-012-RIZ004-006-007-MAZ004-011-015-271600-
SOUTHERN NEW ENGLAND
 IN CT

CITY           SKY/WX    TMP DP  RH WIND       PRES   REMARKS
Bradley INTL   CLOUDY    60  47  61 VRB5      29.89S
Hartford       CLOUDY    61  48  62 NE7       29.88S
Danbury        PTSUNNY   64  54  69 NW7       29.89S
Wtrbury/Oxford PTSUNNY   64  46  52 N12G18    29.88S
Bridgeport     CLOUDY    64  55  72 S9        29.87S
Meriden        PTSUNNY   63  49  60 NW7       29.87F
New Haven      PTSUNNY   65  51  60 NW8       29.87S
Chester        CLOUDY    63  48  59 N10       29.88S
Groton         CLOUDY    61  49  64 N12       29.87S
Wilimantic     CLOUDY    60  49  66 NW6       29.89S

 IN RI

CITY           SKY/WX    TMP DP  RH WIND       PRES   REMARKS
Providence     CLOUDY    60  49  66 N8        29.87S
Block Island   CLOUDY    60  50  69 VRB7      29.88S
Westerly       CLOUDY    62  49  62 N8        29.88S
 IN MA

CITY           SKY/WX    TMP DP  RH WIND       PRES   REMARKS
Boston         CLOUDY    59  52  77 SE10      29.87R
Worcester      MOSUNNY   59  45  59 E7        29.87S
Westfield      CLOUDY    60  49  66 VRB3      29.88S
Provincetown   CLOUDY    55  52  89 NW7       29.87R
Nantucket      CLOUDY    60  49  66 NW9       29.86S
$$

ANZ330-335-338-340-345-350-353-355-271600-
COASTAL MARINE OBSERVATIONS


STATION/POSITION TIME  SKY/WX   TEMP    WIND        PRES    VSBY  WAVE
                                AIR SEA DIR/SP/G                  HT/PER
                 (UTC)          (F)     (DEG/KT/KT) (MB)    (MI)  (FT/S)
NY HARB ENTRANCE 1350            59 57  270/  4/  6 1012.0          3/ 7
20 S FIRE ISLAND 1450            58 57  270/  6/  6 1011.5          3/ 7
GREAT SOUTH BAY  NOT AVBL
23 SSW MONTAUK P 1350            56 55              1011.7          4/ 8
15 E BARNEGAT LI 1430               60                N/A           3/ 6
HUDSON CANYON    1350            57 55  270/  4/  4 1012.1          4/ 7
KINGS POINT      1442            65 59   CALM  /  2 1011.3
EXECUTION ROCKS  1445            63                   N/A
CENTRAL LI SOUND NOT AVBL
EASTERN LI SOUND NOT AVBL
ROBBINS REEF     1442            65     150/  4/  5 1012.1
$$


>>>>>>>>>>>>>>>>>>>>>>>>>>>> KEY <<<<<<<<<<<<<<<<<<<<<<<<<<<
>                                                          <
>     SKY/WX - Sky Condition/Present Weather               <
>     TMP    - Temperature in Fahrenheit                   <
>     DP     - Dew Point in Fahrenheit                     <
>     RH     - Relative Humidity in Percent                <
>     WIND   - Direction (from) and Speed in MPH           <
>     PRES   - Mean Sea Level Pressure (inches of Hg)      <
>     WCI    - Wind Chill Index                            <
>     VSB    - VISIBILITY IN MILES                         <
>     HX     - HEAT INDEX                                  <
>     TC     - TEMPERATURE IN CELSIUS                      <
>     VRB    - VARIABLE WIND DIRECTION                     <
>                                                          <
>>>>>>>>>>>>>>>>>>>>>>>>>>>> KEY <<<<<<<<<<<<<<<<<<<<<<<<<<<




USA.gov is the U.S. government's official web portal to all federal, state and local government web resources and services.